Wind_Speed
15 14 14 14 14 14 14 15 15 15 16 18 18 18 19 19 20 21 22 22 20 19 18 18 18 17 17 16 14 14 13 13 13 13 13 14 14 14 14 15 17 18 18
17 17 17 16 16 16 17 17 17 17 18 20 21 21 21 21 21 22 23 24 23 22 21 20 20 19 19 18 17 16 15 15 15 15 15 15 15 16 16 17 18 19 20
20 19 19 18 18 18 19 20 20 20 21 22 23 23 24 24 24 24 24 25 26 25 24 23 22 22 22 21 20 19 18 17 17 17 17 17 17 17 17 18 19 20 21
22 21 21 21 20 20 21 22 23 23 23 24 25 26 26 26 26 26 26 27 28 28 28 27 26 25 24 24 23 22 21 20 19 19 19 18 18 18 18 19 20 21 22
25 24 23 23 23 23 24 25 26 26 26 27 28 28 29 28 29 28 28 28 29 30 30 30 29 28 27 26 25 25 24 23 22 22 21 20 19 19 19 20 21 21 22
28 27 26 26 26 26 27 28 29 30 31 32 32 31 31 32 31 31 31 30 30 30 31 32 31 30 29 28 28 27 26 25 24 23 23 22 21 21 20 21 21 22 22
31 30 29 29 29 30 30 32 34 34 34 37 37 35 34 35 34 34 33 33 32 31 31 32 32 32 31 30 30 28 27 27 26 25 25 24 23 23 22 22 22 23 23
35 32 31 31 32 32 33 35 37 37 37 40 41 41 37 36 37 37 36 35 34 33 32 32 32 32 31 30 30 29 28 28 28 28 27 26 25 24 24 23 23 22 22
33 31 31 31 32 32 34 36 38 40 41 41 43 44 43 38 38 38 38 37 36 35 34 33 32 32 32 31 30 30 29 29 30 29 29 27 26 25 24 24 23 22 22
32 30 30 30 31 33 35 37 40 42 43 43 44 44 45 43 40 38 38 38 37 36 35 34 32 33 33 32 31 31 31 30 31 30 30 29 27 25 25 24 24 23 22
30 30 31 31 33 35 37 39 41 43 44 45 44 44 44 43 42 39 36 37 37 36 36 35 34 34 34 33 33 33 32 32 32 31 31 29 28 26 25 25 24 23 23
31 32 33 35 36 38 39 41 42 43 43 43 43 42 42 41 39 38 36 35 36 36 37 37 35 35 35 36 36 35 34 34 33 33 32 30 28 27 26 25 24 24 23
34 35 37 38 40 40 41 41 41 40 39 39 38 38 37 37 36 35 35 34 36 37 38 38 38 37 37 37 37 37 36 35 34 33 33 31 29 28 26 25 25 24 23
37 38 40 40 41 41 40 38 36 35 34 33 32 32 32 32 32 33 33 34 35 36 37 38 38 38 37 37 38 37 37 36 36 35 33 31 30 29 27 26 25 24 23
38 39 39 39 38 37 36 33 32 30 29 28 28 28 28 29 31 32 33 34 36 36 37 38 39 38 36 35 36 36 37 37 37 34 32 31 30 29 27 26 25 24 23
37 38 36 35 34 33 32 30 29 27 27 27 26 26 27 27 28 30 32 32 34 35 37 37 39 38 37 35 35 35 36 37 36 33 32 30 29 28 27 25 24 24 23
36 35 33 32 32 31 30 29 28 27 26 26 26 26 26 25 26 27 29 31 33 34 36 37 37 37 36 34 35 35 37 37 34 33 31 30 29 27 26 25 24 23 22
34 33 32 32 32 31 30 29 28 28 27 27 27 26 26 26 26 25 27 27 28 31 33 34 35 35 34 33 34 35 35 33 32 31 30 29 27 26 25 23 22 22 22
33 32 32 31 31 30 29 29 28 28 28 28 28 28 27 27 27 25 25 25 24 25 26 27 28 29 30 29 30 30 28 28 28 27 27 28 26 25 23 22 22 22 22
32 31 31 31 30 29 29 28 28 28 28 28 27 28 28 28 28 27 26 25 23 21 20 21 20 21 23 24 24 25 25 25 25 24 25 25 24 24 23 22 21 21 21
30 30 30 29 29 29 28 28 27 27 28 28 28 28 28 29 29 29 29 28 26 24 22 20 20 19 20 21 21 22 22 23 23 23 24 24 24 23 22 21 21 21 21
28 29 29 28 28 27 27 27 27 27 27 28 28 28 29 29 30 31 31 30 29 28 27 25 24 23 21 20 20 20 21 23 23 23 22 23 23 23 22 21 21 21 21
27 27 27 26 26 25 25 25 25 26 26 27 27 27 28 28 29 31 31 32 32 32 31 30 29 28 27 25 24 23 24 24 24 24 24 25 25 24 23 22 21 21 22
24 24 23 23 23 22 23 23 23 24 24 24 25 25 26 27 28 29 30 31 32 33 34 34 34 33 32 31 30 28 28 27 27 27 28 27 27 27 26 24 23 23 23
20 19 18 18 19 20 21 21 21 21 21 21 21 22 23 23 25 26 28 29 31 32 34 35 36 36 36 36 35 33 33 32 31 30 30 30 29 28 27 27 27 26 26
15 15 16 17 17 18 18 18 18 18 18 18 18 19 19 20 22 23 24 26 27 28 30 32 33 35 36 37 38 38 37 36 36 37 36 33 33 34 33 33 32 31 30
Wind_Direction
280 281 283 288 296 301 308 313 316 318 319 319 317 315 312 303 291 287 284 284 284 285 285 285 286 289 291 290 290 290 293 296 297 295 292 288 285 283 280 274 270 271 272
280 282 284 287 294 299 301 305 307 310 312 314 314 313 311 307 297 288 284 281 281 282 283 283 283 284 286 286 284 285 288 291 293 293 292 291 288 284 281 278 274 272 272
280 283 285 287 291 295 298 298 298 301 305 308 309 309 308 307 303 296 288 282 279 278 280 281 281 281 280 280 280 280 282 286 288 290 289 289 288 285 282 279 277 274 272
278 281 283 286 290 292 294 293 293 294 297 299 302 303 303 303 303 300 293 285 279 276 276 276 277 278 277 277 277 276 277 280 284 286 286 287 287 286 282 280 279 276 274
276 277 280 283 287 289 289 290 289 289 291 293 296 297 297 298 299 298 294 288 281 276 274 273 273 275 275 276 274 274 274 277 281 283 283 284 285 286 284 281 280 278 277
274 277 280 282 285 286 287 288 288 289 290 291 292 293 293 294 294 293 291 288 283 278 274 272 270 271 273 276 274 271 270 272 277 280 281 280 281 283 284 282 279 278 278
272 276 279 281 284 285 286 287 287 288 290 290 291 290 291 291 290 289 288 286 283 280 276 272 269 269 271 275 273 268 268 270 273 276 278 278 278 279 281 281 279 277 277
270 273 276 279 281 282 283 284 285 286 288 290 291 290 289 288 287 286 286 284 281 279 276 272 269 269 270 273 271 267 265 267 269 272 275 276 276 276 276 278 277 276 276
269 274 278 280 281 282 282 283 284 286 288 289 290 290 289 287 284 284 283 280 279 277 274 272 269 269 268 271 270 268 265 264 266 268 272 274 275 273 272 273 273 273 274
275 277 279 281 281 281 282 284 286 288 289 289 289 289 289 288 285 282 280 277 275 273 271 268 267 267 267 267 267 267 266 264 264 265 268 271 273 270 269 269 269 269 270
278 280 280 281 281 282 284 286 288 289 289 289 289 288 287 286 285 283 278 274 272 270 268 267 265 264 264 265 265 264 265 264 263 264 266 268 269 267 266 266 265 265 265
278 279 279 280 281 284 287 289 291 291 291 291 290 288 286 285 283 280 277 272 268 266 265 265 265 264 264 265 263 261 263 263 262 262 264 265 265 266 265 264 263 262 261
277 278 278 279 282 285 288 291 292 293 292 293 292 290 287 283 279 275 273 269 266 264 263 263 264 264 264 263 262 260 260 260 260 260 260 261 263 263 263 262 261 259 259
276 276 278 279 282 285 288 291 293 294 293 293 293 291 287 282 276 272 269 266 264 262 261 262 264 265 264 263 260 259 258 257 257 257 256 257 260 261 260 259 259 257 256
275 277 278 279 281 284 287 289 292 292 291 291 292 293 288 282 275 271 267 266 264 261 261 262 263 264 263 263 261 259 257 254 253 252 251 254 257 258 258 257 257 256 255
275 277 278 278 280 282 285 287 288 287 287 287 289 291 290 285 278 273 268 267 266 265 264 263 263 263 263 267 263 260 256 251 247 247 249 251 253 254 255 255 256 255 253
274 275 276 278 280 281 283 283 283 282 282 284 284 288 289 288 284 278 275 270 268 267 265 265 263 262 264 264 261 258 253 248 244 244 245 247 249 252 253 253 253 252 251
271 274 276 278 279 280 280 280 279 279 279 280 281 284 286 286 285 283 280 277 271 268 267 265 263 262 263 262 257 254 250 245 243 242 242 244 247 249 250 249 249 248 247
270 274 276 277 278 278 278 277 277 276 277 277 278 279 280 282 283 284 286 283 278 273 269 267 262 261 258 254 249 245 241 242 243 243 243 244 245 246 247 247 247 246 244
271 273 275 276 276 276 276 276 275 275 276 276 277 278 278 278 279 279 281 283 283 281 275 268 260 255 250 245 241 239 238 240 242 244 244 244 245 247 246 245 246 245 241
270 272 274 275 275 275 276 276 276 276 276 276 277 277 277 276 276 276 277 277 278 279 278 275 268 261 253 247 244 240 241 242 243 246 246 245 246 248 249 246 244 243 239
271 273 274 274 275 276 277 277 277 277 278 277 277 276 276 275 274 273 273 273 273 273 272 271 270 267 262 257 254 248 246 247 249 250 250 249 248 248 250 246 243 241 239
271 272 273 275 277 279 280 281 281 281 281 280 279 278 276 275 273 272 271 270 270 270 269 268 266 264 261 258 256 254 252 250 250 252 253 253 250 249 250 248 244 242 241
271 273 275 278 280 281 282 283 285 285 284 282 281 279 277 275 273 272 271 270 270 269 268 267 266 264 262 259 256 255 253 250 249 249 249 250 246 245 246 247 245 245 245
272 275 278 280 282 284 286 287 288 288 286 284 282 281 279 277 275 273 272 271 270 268 266 266 264 262 260 258 256 252 250 247 244 244 244 243 244 244 245 246 245 245 246
272 275 278 282 284 287 290 292 293 292 290 289 288 286 284 283 280 278 277 275 273 271 269 267 266 263 261 259 256 253 250 247 244 243 243 243 243 244 244 243 244 245 247
Height
5902 5902 5901 5901 5900 5898 5897 5895 5894 5892 5890 5889 5887 5886 5884 5883 5882 5881 5881 5880 5880 5879 5878 5878 5877 5876 5874 5873 5872 5871 5870 5869 5868 5867 5866 5865 5865 5864 5863 5863 5862 5862 5862
5898 5898 5897 5896 5895 5894 5893 5892 5890 5889 5887 5886 5884 5882 5881 5879 5878 5877 5876 5875 5875 5874 5874 5873 5872 5872 5871 5870 5869 5868 5867 5866 5865 5864 5863 5862 5861 5860 5860 5859 5859 5858 5858
5894 5893 5892 5891 5890 5889 5888 5887 5886 5885 5883 5881 5880 5878 5876 5874 5873 5872 5871 5870 5869 5869 5869 5868 5868 5867 5867 5866 5865 5865 5863 5862 5861 5860 5859 5858 5857 5856 5856 5855 5854 5854 5854
5888 5887 5887 5886 5885 5884 5883 5882 5881 5880 5878 5876 5875 5873 5871 5870 5868 5866 5865 5864 5864 5863 5863 5863 5862 5862 5861 5861 5860 5860 5859 5858 5857 5856 5855 5854 5853 5852 5851 5851 5850 5850 5850
5881 5880 5880 5879 5879 5878 5877 5876 5875 5874 5873 5870 5869 5868 5866 5864 5862 5861 5859 5858 5857 5857 5856 5856 5856 5856 5856 5855 5855 5854 5854 5854 5853 5851 5850 5849 5848 5847 5846 5846 5845 5845 5845
5873 5873 5872 5872 5872 5871 5870 5869 5868 5867 5865 5863 5862 5861 5859 5858 5856 5854 5852 5851 5850 5850 5849 5849 5849 5849 5849 5849 5848 5848 5848 5848 5848 5847 5845 5844 5843 5842 5842 5841 5840 5840 5840
5865 5864 5864 5863 5863 5863 5862 5860 5859 5858 5857 5854 5853 5853 5852 5850 5849 5847 5845 5844 5843 5842 5842 5841 5842 5842 5842 5842 5841 5841 5842 5842 5842 5841 5840 5839 5838 5837 5836 5836 5835 5835 5834
5855 5855 5855 5854 5854 5854 5853 5852 5850 5849 5848 5845 5843 5842 5844 5843 5840 5838 5837 5836 5834 5834 5834 5833 5834 5834 5834 5834 5834 5834 5835 5835 5836 5835 5835 5834 5833 5832 5831 5830 5830 5829 5829
5845 5845 5845 5845 5845 5845 5844 5843 5841 5839 5839 5837 5833 5831 5831 5833 5831 5829 5827 5826 5826 5825 5825 5825 5825 5826 5826 5826 5826 5827 5827 5828 5829 5829 5828 5827 5827 5826 5825 5824 5824 5824 5824
5835 5836 5836 5837 5836 5836 5835 5834 5832 5830 5828 5827 5824 5821 5819 5819 5820 5820 5818 5816 5816 5816 5816 5816 5817 5817 5817 5818 5818 5819 5820 5821 5821 5821 5821 5821 5820 5819 5819 5818 5818 5818 5818
5827 5827 5828 5828 5828 5827 5826 5824 5822 5820 5817 5816 5814 5811 5809 5808 5807 5807 5808 5807 5805 5806 5806 5807 5808 5808 5808 5809 5809 5810 5811 5812 5813 5814 5814 5814 5813 5813 5812 5812 5812 5812 5812
5819 5819 5819 5819 5819 5818 5816 5815 5812 5810 5807 5805 5802 5800 5798 5797 5796 5795 5796 5796 5796 5796 5796 5797 5798 5799 5799 5800 5800 5801 5802 5803 5805 5806 5806 5806 5806 5806 5806 5806 5806 5806 5806
5810 5811 5811 5810 5809 5808 5807 5805 5802 5800 5797 5794 5792 5789 5787 5786 5785 5784 5784 5785 5785 5786 5786 5787 5787 5789 5790 5790 5791 5792 5793 5794 5796 5797 5798 5799 5799 5799 5799 5799 5799 5800 5800
5801 5802 5801 5800 5800 5798 5797 5795 5793 5790 5787 5785 5782 5780 5778 5776 5775 5775 5775 5775 5775 5776 5776 5777 5777 5778 5779 5780 5781 5782 5783 5785 5787 5788 5789 5790 5791 5791 5792 5792 5793 5793 5794
5792 5792 5791 5791 5790 5789 5787 5786 5784 5781 5779 5777 5775 5772 5770 5768 5767 5766 5765 5765 5765 5765 5767 5767 5767 5768 5769 5770 5771 5772 5773 5775 5777 5779 5781 5782 5783 5784 5784 5785 5786 5787 5788
5782 5782 5781 5781 5780 5779 5778 5777 5775 5774 5772 5770 5768 5765 5763 5761 5759 5758 5756 5755 5755 5756 5756 5757 5757 5758 5759 5760 5761 5762 5763 5765 5767 5769 5772 5773 5775 5776 5777 5778 5779 5780 5781
5773 5773 5772 5772 5771 5770 5769 5768 5767 5766 5764 5763 5761 5759 5757 5754 5752 5750 5748 5747 5746 5746 5746 5747 5747 5748 5749 5750 5751 5752 5753 5755 5757 5760 5762 5765 5766 5768 5770 5771 5772 5773 5774
5764 5764 5764 5763 5762 5761 5761 5760 5759 5758 5756 5755 5753 5752 5750 5748 5746 5744 5742 5740 5738 5738 5737 5737 5737 5738 5739 5740 5742 5743 5745 5746 5748 5751 5753 5756 5758 5760 5762 5764 5765 5766 5768
5755 5755 5755 5754 5754 5753 5752 5751 5750 5749 5748 5746 5745 5744 5743 5741 5739 5738 5736 5734 5732 5731 5730 5729 5729 5729 5730 5732 5734 5735 5737 5739 5741 5743 5746 5748 5750 5753 5755 5756 5758 5760 5761
5746 5746 5746 5746 5745 5745 5744 5743 5742 5740 5739 5738 5737 5736 5735 5734 5732 5731 5730 5729 5727 5726 5725 5724 5723 5723 5724 5725 5727 5728 5730 5732 5735 5737 5739 5741 5743 5745 5747 5749 5751 5753 5755
5738 5738 5738 5737 5737 5736 5735 5734 5733 5732 5731 5730 5729 5728 5727 5726 5725 5724 5723 5722 5722 5721 5720 5720 5719 5718 5719 5719 5721 5722 5724 5726 5728 5730 5732 5734 5736 5738 5740 5742 5744 5746 5748
5729 5730 5730 5729 5729 5728 5727 5726 5726 5724 5723 5722 5721 5720 5719 5718 5717 5716 5715 5715 5714 5714 5714 5714 5714 5714 5714 5714 5715 5716 5718 5720 5722 5724 5725 5727 5729 5731 5733 5735 5737 5740 5742
5722 5722 5722 5722 5721 5720 5720 5719 5718 5717 5716 5714 5713 5711 5710 5709 5708 5707 5706 5706 5706 5706 5706 5707 5707 5708 5708 5709 5709 5710 5712 5714 5715 5717 5718 5720 5721 5723 5726 5728 5730 5733 5735
5715 5715 5715 5715 5714 5713 5713 5712 5711 5709 5708 5707 5705 5704 5702 5701 5700 5699 5698 5697 5697 5697 5697 5697 5698 5699 5700 5702 5703 5704 5705 5707 5708 5709 5711 5712 5713 5715 5717 5720 5722 5725 5728
5709 5709 5709 5709 5708 5707 5706 5705 5704 5702 5701 5699 5698 5697 5695 5694 5692 5691 5690 5689 5688 5687 5687 5687 5688 5689 5690 5692 5693 5695 5697 5699 5700 5701 5702 5703 5704 5706 5709 5711 5714 5716 5719
5704 5704 5704 5703 5702 5701 5700 5699 5698 5696 5695 5694 5692 5691 5689 5688 5686 5684 5683 5681 5680 5679 5678 5678 5678 5678 5679 5681 5682 5684 5686 5689 5690 5691 5692 5693 5695 5697 5700 5702 5705 5707 5710